www.pogodaiklimat.ru

Погода и климат >> Архив погоды >> Норвегия >> Лекнес


ПОГОДА в Лекнесе

  • Прогноз погоды в Лекнесе
  • Монитор погоды в Лекнесе

АРХИВ ПОГОДЫ в Лекнесе

Время (UTC), дата Ветер
(напр.,м/с)
 
Видим.   Явления Облачность Т
(С)
Тd
(С)
f
(%)
Тe
(С)
Тes
(С)
Комфортность P
(гПа)
Po
(гПа)
Тmin
(С)
Tmax
(С)
R
(мм)
R24
(мм)
S
(см)
01 19.04 Ю 2
{3}
н/о н/о +4.8 +4.1 95 +2 +2 1030.6 1027.5 0.2
02 19.04 В 1
{3}
н/о н/о +4.3 +3.6 95 +3 +3 1030.2 1027.1 0.1
03 19.04 В 1
{2}
н/о н/о +4.9 +4.3 96 +3 +3 1029.8 1026.7 0.4
04 19.04 Ю 4
{6}
н/о н/о +5.2 +4.8 97 +1 +1 1029.5 1026.4 0.4
05 19.04 Ю 4
{6}
н/о н/о +5.5 +5.2 98 +1 +1 1029.4 1026.3 0.2
06 19.04 Ю 5
{7}
н/о н/о +5.8 +5.4 97 +1 +1 1029.4 1026.3 +3.0 +5.8 2
07 19.04 ЮВ 5
{8}
н/о н/о +6.0 +5.6 97 +1 +1 1029.5 1026.4 0.2
08 19.04 Ю 7
{11}
н/о н/о +6.7 +6.0 95 +2 +2 1029.4 1026.3 0.2
09 19.04 Ю 8
{12}
н/о н/о +7.0 +6.3 95 +2 +2 1029.5 1026.4
10 19.04 ЮВ 5
{11}
н/о н/о +6.3 +5.7 96 +2 +2 1029.4 1026.3
11 19.04 ЮВ 6
{10}
н/о н/о +6.7 +5.8 94 +2 +2 1029.1 1026.0
12 19.04 Ю 5
{12}
н/о н/о +6.8 +5.4 91 +3 +3 1028.9 1025.9
13 19.04 ЮВ 5
{9}
н/о н/о +6.9 +5.7 92 +3 +3 1029.2 1026.1
14 19.04 ЮВ 7
{10}
н/о н/о +6.6 +5.4 92 +2 +2 1029.1 1026.0
15 19.04 ЮВ 6
{9}
н/о н/о +6.8 +5.4 91 +2 +2 1029.2 1026.1
16 19.04 Ю 6
{9}
н/о н/о +6.3 +5.3 93 +1 +1 1029.0 1025.9
17 19.04 Ю 5
{9}
н/о н/о +6.1 +5.2 94 +2 +2 1029.0 1025.9
18 19.04 ЮВ 5
{10}
н/о н/о +6.0 +5.3 95 +1 +1 1028.9 1025.8 +5.8 +7.7 0.4
19 19.04 ЮВ 5
{7}
н/о н/о +5.9 +5.2 95 +1 +1 1028.9 1025.8
20 19.04 ЮВ 4
{7}
н/о н/о +5.9 +5.2 95 +2 +2 1029.1 1026.0
21 19.04 ЮВ 5
{7}
н/о н/о +5.7 +5.1 96 +1 +1 1028.9 1025.8
22 19.04 ЮВ 5
{8}
н/о н/о +5.9 +5.2 95 +1 +1 1028.9 1025.8
23 19.04 ЮВ 6
{8}
н/о н/о +5.7 +5.1 96 +1 +1 1028.6 1025.5
00 20.04 ЮВ 5
{9}
н/о н/о +5.5 +4.9 96 +1 +1 1028.5 1025.4
01 20.04 Ю 4
{8}
н/о н/о +5.6 +4.7 94 +1 +1 1028.1 1025.0
02 20.04 Ю 6
{8}
н/о н/о +5.6 +4.6 93 +1 +1 1027.7 1024.6
03 20.04 Ю 3
{7}
н/о н/о +5.3 +4.6 95 +2 +2 1027.5 1024.4
04 20.04 Ю 5
{9}
н/о н/о +5.4 +4.7 95 +1 +1 1027.1 1024.0
05 20.04 Ю 6
{9}
н/о н/о +5.9 +4.7 92 +1 +1 1026.9 1023.8
06 20.04 Ю 5
{9}
н/о н/о +6.4 +4.7 89 +2 +2 1026.3 1023.3 +5.2 +6.5
07 20.04 ЮВ 7
{12}
н/о н/о +7.0 +4.5 84 +2 +2 1026.0 1022.9
08 20.04 Ю 8
{13}
н/о н/о +7.7 +3.9 77 +3 +3 1025.2 1022.1
09 20.04 Ю 8
{13}
н/о н/о +8.8 +4.1 72 +5 +5 1024.5 1021.5
10 20.04 Ю 8
{14}
н/о н/о +8.9 +3.3 68 +5 +5 1024.0 1020.9
11 20.04 ЮВ 7
{12}
н/о н/о +8.9 +3.5 69 +5 +5 1023.2 1020.2
12 20.04 ЮВ 7
{14}
н/о н/о +9.7 +3.2 64 +6 +6 1022.0 1018.9
13 20.04 Ю 6
{11}
н/о н/о +8.3 +2.8 68 +5 +5 1020.7 1017.7
14 20.04 Ю 7
{11}
н/о н/о +7.9 +3.4 73 +4 +4 1019.8 1016.7 0.3
15 20.04 Ю 9
{13}
н/о н/о +7.3 +4.4 82 +2 +2 1018.1 1015.1 0.7
16 20.04 Ю 9
{14}
н/о н/о +6.6 +4.6 87 +1 +1 1016.9 1013.9 1
17 20.04 Ю 9
{14}
н/о н/о +6.8 +5.8 93 +1 +1 1016.0 1012.9 1
18 20.04 Ю 9
{14}
н/о н/о +6.7 +5.8 94 +1 +1 1015.5 1012.5 +6.4 +10.2 3
19 20.04 Ю 7
{12}
н/о н/о +6.7 +6.1 96 +2 +2 1015.0 1012.0
20 20.04 Ю 3
{8}
н/о н/о +6.8 +5.9 94 +4 +4 1014.9 1011.8 0.1
21 20.04 ЮЗ 4
{6}
н/о н/о +7.3 +4.3 81 +4 +4 1015.2 1012.1
22 20.04 Ю 6
{10}
н/о н/о +6.7 +5.0 89 +2 +2 1014.9 1011.8
23 20.04 Ю 6
{8}
н/о н/о +6.6 +5.2 91 +2 +2 1014.0 1011.0 0.1
00 21.04 Ю 5
{12}
н/о н/о +6.9 +5.4 90 +3 +3 1013.1 1010.1 0.3
01 21.04 Ю 5
{10}
н/о н/о +6.9 +5.2 89 +3 +3 1012.5 1009.4 0.8
02 21.04 ЮЗ 5
{8}
н/о н/о +7.4 +3.5 76 +4 +4 1012.0 1009.0
03 21.04 ЮЗ 3
{8}
н/о н/о +6.8 +2.3 73 +4 +4 1011.9 1008.9
04 21.04 Ю 3
{7}
н/о н/о +6.4 +2.7 77 +3 +3 1011.7 1008.6
05 21.04 ЮЗ 4
{10}
н/о н/о +7.5 +1.6 66 +4 +4 1011.4 1008.4
06 21.04 ЮЗ 3
{10}
н/о н/о +6.2 +3.4 82 +3 +3 1011.4 1008.3 +6.0 +8.1 2
07 21.04 З 5
{11}
н/о н/о +7.1 +2.4 72 +3 +3 1011.2 1008.2 0.1
08 21.04 ЮЗ 6
{11}
н/о н/о +7.3 +1.2 65 +3 +3 1011.1 1008.1
09 21.04 З 7
{12}
н/о н/о +7.7 +1.3 64 +3 +3 1011.2 1008.1
10 21.04 З 6
{13}
н/о н/о +6.8 +2.3 73 +2 +2 1011.2 1008.2 0.3
11 21.04 Ю 3
{12}
н/о н/о +6.8 +2.7 75 +4 +4 1011.5 1008.5 0.4
12 21.04 ЮЗ 5
{13}
н/о н/о +7.5 +1.6 66 +4 +4 1011.5 1008.5
13 21.04 З 7
{11}
н/о н/о +6.9 +2.4 73 +2 +2 1011.7 1008.7 0.1
14 21.04 З 5
{12}
н/о н/о +6.4 +3.4 81 +2 +2 1012.1 1009.1 0.3
15 21.04 З 8
{11}
н/о н/о +7.2 +3.1 75 +2 +2 1012.4 1009.4 0.2
16 21.04 З 7
{12}
н/о н/о +8.4 +2.7 67 +4 +4 1012.6 1009.6
17 21.04 З 5
{8}
н/о н/о +7.2 +2.1 70 +3 +3 1013.2 1010.2
18 21.04 ЮЗ 2
{12}
н/о н/о +6.9 +2.0 71 +5 +5 1013.0 1010.0 +5.6 +8.9 1
19 21.04 З 3
{4}
н/о н/о +6.2 +2.5 77 +3 +3 1013.0 1010.0
20 21.04 ЮЗ 3
{5}
н/о н/о +5.4 +1.3 75 +2 +2 1013.3 1010.2
21 21.04 З 4
{7}
н/о н/о +6.1 +1.5 72 +3 +3 1013.8 1010.7
22 21.04 З 3
{9}
н/о н/о +6.1 +1.3 71 +3 +3 1014.2 1011.2
23 21.04 Ю 1
{4}
н/о н/о +5.7 +3.4 85 +5 +5 1014.4 1011.3
00 22.04 С 1
{9}
н/о н/о +5.0 +2.7 85 +4 +4 1014.2 1011.2
01 22.04 ЮВ 2
{3}
н/о н/о +5.4 +3.9 90 +3 +3 1014.4 1011.4
02 22.04 С 1
{3}
н/о н/о +4.3 +3.1 92 +3 +3 1014.5 1011.5 0.1
03 22.04 В 2
{3}
н/о н/о +4.8 +3.5 91 +2 +2 1014.5 1011.4 0.2
04 22.04 ЮВ 2
{4}
н/о н/о +5.3 +4.1 92 +3 +3 1014.4 1011.4
05 22.04 Ю 4
{7}
н/о н/о +5.4 +4.5 94 +1 +1 1014.5 1011.5
06 22.04 Ю 4
{8}
н/о н/о +5.5 +4.8 95 +1 +1 1014.6 1011.5 +4.1 +7.0 0.3
07 22.04 Ю 5
{8}
н/о н/о +5.7 +4.8 94 +1 +1 1014.7 1011.7
08 22.04 Ю 4
{7}
н/о н/о +6.2 +3.9 85 +2 +2 1014.3 1011.3
09 22.04 ЮВ 4
{7}
н/о н/о +7.1 +2.0 70 +4 +4 1013.7 1010.7
10 22.04 ЮВ 4
{8}
н/о н/о +7.2 +2.7 73 +4 +4 1012.8 1009.8 0.2
11 22.04 ЮВ 5
{9}
н/о н/о +6.6 +3.4 80 +3 +3 1012.2 1009.2 0.6
12 22.04 Ю 5
{10}
н/о н/о +7.1 +5.3 88 +3 +3 1011.0 1008.0 2
13 22.04 Ю 9
{14}
н/о н/о +8.0 +6.5 90 +3 +3 1010.4 1007.4 3
14 22.04 Ю 8
{15}
н/о н/о +6.9 +5.9 93 +2 +2 1009.8 1006.7 1
15 22.04 Ю 7
{12}
н/о н/о +6.8 +5.8 93 +2 +2 1009.8 1006.7 0.4
16 22.04 Ю 5
{11}
н/о н/о +6.9 +5.7 92 +3 +3 1010.0 1007.0 0.4
17 22.04 Ю 6
{11}
н/о н/о +6.8 +5.4 91 +2 +2 1010.0 1006.9 0.2
18 22.04 Ю 6
{15}
н/о н/о +6.6 +4.9 89 +2 +2 1010.0 1007.0 +5.4 +8.1 7
19 22.04 Ю 7
{11}
н/о н/о +6.7 +4.9 88 +2 +2 1010.4 1007.4
20 22.04 Ю 7
{11}
н/о н/о +7.1 +5.3 88 +2 +2 1011.0 1008.0
21 22.04 Ю 6
{9}
н/о н/о +7.1 +5.4 89 +3 +3 1011.5 1008.5
22 22.04 Ю 5
{9}
н/о н/о +6.7 +5.2 90 +2 +2 1011.6 1008.6
23 22.04 Ю 5
{9}
н/о н/о +6.6 +4.9 89 +2 +2 1011.8 1008.7
00 23.04 Ю 6
{11}
н/о н/о +7.2 +5.2 87 +3 +3 1011.9 1008.9
01 23.04 Ю 6
{10}
н/о н/о +7.0 +5.0 87 +3 +3 1012.4 1009.3
02 23.04 ЮЗ 3
{10}
н/о н/о +8.7 +5.3 79 +6 +6 1012.7 1009.7
03 23.04 ЮВ 3
{5}
н/о н/о +6.9 +4.9 87 +4 +4 1013.1 1010.1
04 23.04 В 1
{3}
н/о н/о +7.4 +4.9 84 +7 +7 1013.4 1010.4
05 23.04 ЮВ 5
{8}
н/о н/о +7.3 +5.1 86 +3 +3 1013.8 1010.8
06 23.04 ЮВ 5
{10}
н/о н/о +8.3 +5.4 82 +5 +5 1014.2 1011.2 +6.6 +8.8
07 23.04 ЮВ 4
{9}
н/о н/о +8.5 +5.4 81 +5 +5 1014.7 1011.7
08 23.04 ЮВ 6
{9}
н/о н/о +9.2 +5.4 77 +6 +6 1015.2 1012.2
09 23.04 ЮВ 6
{8}
н/о н/о +9.2 +5.8 79 +6 +6 1015.6 1012.6
10 23.04 ЮВ 7
{9}
н/о н/о +8.7 +6.0 83 +4 +4 1016.2 1013.2
11 23.04 ЮВ 5
{9}
н/о н/о +9.0 +5.8 80 +6 +6 1016.6 1013.6
12 23.04 Ю 4
{9}
н/о н/о +9.7 +5.9 77 +7 +7 1017.2 1014.2
13 23.04 Ю 3
{6}
н/о н/о +10.4 +6.6 77 +8 +8 1017.8 1014.8
14 23.04 ЮВ 4
{6}
н/о н/о +9.8 +6.0 77 +7 +7 1018.0 1015.0
15 23.04 Ю 4
{7}
н/о н/о +9.0 +5.6 79 +6 +6 1018.2 1015.2
16 23.04 ЮВ 2
{5}
н/о н/о +10.5 +6.3 75 +9 +9 1018.4 1015.4 0.1
17 23.04 ЮВ 3
{4}
н/о н/о +8.9 +5.5 79 +6 +6 1018.9 1015.9
18 23.04 ЮВ 1
{7}
н/о н/о +8.0 +5.6 85 +7 +7 1019.2 1016.2 +8.0 +11.5 0.1
19 23.04 В 2
{3}
н/о н/о +6.6 +4.8 88 +4 +4 1019.7 1016.7
20 23.04 В 3
{4}
н/о н/о +5.8 +4.6 92 +2 +2 1020.2 1017.1
21 23.04 ЮВ 1
{4}
н/о н/о +4.8 +4.1 95 +3 +3 1020.8 1017.7
22 23.04 штиль 0
{4}
н/о н/о +3.5 +2.6 94 +2 +2 1020.9 1017.8
23 23.04 С 1
{2}
н/о н/о +4.3 +3.9 97 +3 +3 1021.1 1018.0
00 24.04 З 1
{4}
н/о н/о +4.3 +3.9 97 +3 +3 1021.1 1018.0
01 24.04 ЮЗ 1
{2}
н/о н/о +3.8 +3.5 98 +2 +2 1021.5 1018.4
02 24.04 СВ 1
{2}
н/о н/о +3.6 +3.3 98 +2 +2 1021.9 1018.8
03 24.04 штиль 0
{1}
н/о н/о +3.6 +3.3 98 +2 +2 1022.2 1019.1
04 24.04 Ю 2
{3}
н/о н/о +3.7 +3.6 99 +1 +1 1022.2 1019.1
05 24.04 Ю 2
{2}
н/о н/о +4.6 +4.5 99 +2 +2 1022.3 1019.2
06 24.04 Ю 2
{3}
н/о н/о +6.7 +6.3 97 +4 +4 1022.5 1019.4 +2.4 +8.0
07 24.04 ЮЗ 1
{3}
н/о н/о +9.3 +7.3 87 +9 +9 1022.4 1019.4
08 24.04 Ю 2
{3}
н/о н/о +11.2 +6.0 70 +10 +10 1022.7 1019.7
09 24.04 Ю 1
{3}
н/о н/о +13.2 +5.6 60 +14 +14 1022.8 1019.8
10 24.04 Ю 3
{4}
н/о н/о +14.3 +6.2 58 +14 +14 1022.8 1019.8 0.1
11 24.04 Ю 2
{4}
н/о н/о +15.7 +5.0 49 +16 +16 1022.7 1019.7 0.1
12 24.04 Ю 2
{4}
н/о н/о +16.2 +4.3 45 +16 +16 1022.8 1019.8
13 24.04 Ю 2
{3}
н/о н/о +17.3 +3.6 40 +18 +18 1022.7 1019.7 0.1
14 24.04 З 3
{5}
н/о н/о +16.7 +3.1 40 +17 +17 1022.8 1019.8
15 24.04
{8}
н/о н/о +15.2 +3.4 45 1022.7 1019.7
16 24.04 С 6
{8}
н/о н/о +14.1 +2.7 46 +12 +12 1022.6 1019.6
17 24.04 С 5
{8}
н/о н/о +13.1 +3.2 51 +11 +11 1022.5 1019.5
18 24.04 С 5
{8}
н/о н/о +11.6 +2.9 55 +9 +9 1022.6 1019.6 +6.8 +17.6 0.3
19 24.04 С 4
{7}
н/о н/о +10.2 +2.6 59 +8 +8 1022.7 1019.7
20 24.04 С 5
{7}
н/о н/о +9.6 +2.5 61 +7 +7 1022.9 1019.9
21 24.04 С 5
{7}
н/о н/о +8.5 +2.1 64 +5 +5 1022.8 1019.8
22 24.04 ЮВ 2
{6}
н/о н/о +7.0 +2.9 75 +5 +5 1023.0 1019.9
23 24.04 штиль 0
{3}
н/о н/о +5.1 +1.8 79 +4 +4 1022.7 1019.7
00 25.04 СВ 1
{7}
н/о н/о +4.6 +1.1 78 +3 +3 1022.6 1019.5
01 25.04 С 1
{2}
н/о н/о +4.8 +1.1 77 +4 +4 1022.6 1019.5
02 25.04 ЮВ 1
{2}
н/о н/о +4.8 +0.9 76 +4 +4 1022.5 1019.4
03 25.04 С 1
{2}
н/о н/о +6.4 +0.7 67 +6 +6 1022.3 1019.2
04 25.04 С 1
{2}
н/о н/о +5.7 +0.9 71 +5 +5 1022.1 1019.0
05 25.04 Ю 1
{2}
н/о н/о +9.0 +1.9 61 +9 +9 1022.0 1019.0
06 25.04 СЗ 2
{2}
н/о н/о +11.4 +3.0 56 +11 +11 1022.0 1019.0 +3.3 +11.7
07 25.04 З 1
{2}
н/о н/о +13.6 +2.5 47 +14 +14 1021.8 1018.8
08 25.04 Ю 1
{3}
н/о н/о +14.6 +1.2 40 +15 +15 1021.7 1018.7
09 25.04 СВ 4
{6}
н/о н/о +14.1 +1.1 41 +13 +13 1021.9 1019.0
10 25.04 В 4
{6}
н/о н/о +14.7 +1.3 40 +14 +14 1021.9 1018.9
11 25.04 В 3
{6}
н/о н/о +15.1 +1.3 39 +15 +15 1021.8 1018.8
12 25.04 Ю 3
{6}
н/о н/о +16.6 +0.7 34 +16 +16 1021.7 1018.7
13 25.04 Ю 4
{6}
н/о н/о +16.8 +0.9 34 +16 +16 1021.4 1018.5
14 25.04 Ю 4
{7}
н/о н/о +16.8 -0.8 30 +16 +16 1021.5 1018.5
15 25.04 Ю 3
{5}
н/о н/о +16.9 -1.2 29 +17 +17 1021.4 1018.5
16 25.04 В 3
{5}
н/о н/о +15.9 -0.3 33 +16 +16 1021.2 1018.2
17 25.04 Ю 1
{5}
н/о н/о +15.1 -0.2 35 +16 +16 1020.9 1017.9 0.1
18 25.04 ЮЗ 1
{7}
н/о н/о +13.1 +2.1 47 +14 +14 1020.8 1017.8 +11.5 +17.2 0.1
19 25.04 Ю 1
{3}
н/о н/о +11.1 +1.9 53 +11 +11 1021.0 1018.0
20 25.04 С 1
{2}
н/о н/о +9.6 +1.3 56 +9 +9 1021.2 1018.1
21 25.04 З 1
{2}
н/о н/о +10.1 +0.5 51 +10 +10 1021.3 1018.3
22 25.04 Ю 1
{2}
н/о н/о +9.9 +0.5 52 +10 +10 1021.3 1018.3
23 25.04 Ю 2
{3}
н/о н/о +10.6 +0.1 48 +10 +10 1021.0 1018.0
00 26.04 СЗ 1
{3}
н/о н/о +9.2 +0.2 53 +9 +9 1020.8 1017.8
01 26.04 З 1
{3}
н/о н/о +9.6 0.0 51 +10 +10 1020.7 1017.7

 

Местоположение метеостанции Лекнес (Норвегия): широта 68.16 долгота 13.62 высота над уровнем моря 26 м.

В архиве по умолчанию представлена погода в Лекнесе за последнюю неделю. Архивные данные за месяц целиком и за предыдущие месяцы, начиная с января 2011 года, Вы можете получить, выбрав интересующий диапазон дат из раскрывающегося списка и нажав кнопку "Ввод!".


*Определитесь, кто Вы:
робот инопланетянин человек

Внимание! Время в таблицах - всемирное. Для получения местного времени необходимо прибавить поправку, которая равна 1 ч.

Смотрите также архив погоды в соседних городах и на ближайших метеорологических станциях:

Погода на Маяке Skrova (Норвегия) (43 км)
Погода в Сволваер аэропорту (Норвегия) (45 км)
Погода в Бё (Норвегия) (60 км)
Погода в Аэропорту Vaeroy Heliport (Норвегия) (68 км)
Погода в Стокмаркнес аэропорту (Норвегия) (74 км)
Погода в Хеллигвере (Норвегия) (85 км)
Погода в Сортланне (Норвегия) (95 км)
Погода в Рост аэропорту (Норвегия) (96 км)
Погода на Маяке Rotvaer (Норвегия) (98 км)
Погода в Драге (Норвегия) (103 км)

Пояснения к столбцам:

Ветер - указаны скорость ветра в м/с - средняя за 10 мин, порывы в срок и между сроками (в фигурных скобках) и направление, откуда дует ветер: С - северный, СВ - северо-восточный, В - восточный, ЮВ - юго-восточный, Ю - южный, ЮЗ - юго-западный, З - западный, СЗ - северо-западный.
Видимость - горизонтальная дальность видимости в метрах или километрах. При видимости от 1 до 10 км при отсутствии осадков обычно наблюдается дымка, при ухудшении видимости до 1 км и менее - туман. В сухую погоду видимость может ухудшаться дымом, пылью или мглою.
Явления - указаны атмосферные явления, наблюдавшиеся в срок или в последний час перед сроком; фигурными скобками обозначены явления, наблюдавшиеся между сроками (за 1-3 часа до срока); квадратными скобками обозначены град или гололедные отложения с указанием их диаметра в мм.
Облачность - указаны через наклонную черту общая и нижняя облачность в баллах и высота нижней границы облаков в метрах; квадратными скобками обозначены формы облаков: Ci - перистые, Cs - перисто-слоистые, Cc - перисто-кучевые, Ac - высококучевые, As - высокослоистые, Sc - слоисто-кучевые, Ns - слоисто-дождевые, Cu - кучевые, Cb - кучево-дождевые. Подробнее классификацию облаков см. в Атласе облаков (PDF).
T - Температура воздуха - температура, измеренная на высоте 2 м над землей.
Td - Температура точки росы - температура, при понижении до которой содержащийся в воздухе водяной пар достигнет насыщения.
f - Относительная влажность воздуха - влажноcть воздуха, измеренная на высоте 2 м над землей.
Te - Эффективная температура - температура, которую ощущает одетый по сезону человек в тени. Характеристика душности погоды. При расчете учитывается влияние влажности воздуха и скорости ветра на теплоощущения человека.
Tes - Эффективная температура на солнце - температура, которую ощущает человек, с поправкой на солнечный нагрев. Характеристика знойности погоды. Зависит от высоты солнца над горизонтом, облачности и скорости ветра. Ночью, в пасмурную погоду, а также при ветре 12 м/с и более поправка равна нулю.
P - Атмосферное давление - приведенное к уровню моря атмосферное давление.
Po - Атмосферное давление - измеренное на уровне метеостанции атмосферное давление.
Tmin - Минимальная температура - минимум температуры воздуха на высоте 2 м над землей.
Tmax - Максимальная температура - максимум температуры воздуха на высоте 2 м над землей.
R - Количество осадков - Количество выпавших осадков за период времени, мм. При наведении курсора мыши на число - период времени, за который выпало указанное количество осадков.
R24 - Количество осадков - Количество выпавших осадков за 24 часа, мм.
S - Снежный покров - Высота снежного покрова, см. При наведении курсора мыши на число - состояние снежного покрова и степень покрытия местности в баллах.